Zurück zum Katalog

SL-14 DEB

AktivPO
NORAD 26025·DEBRIS·🇷🇺 Russia

Gestartet Sep 28, 1991 von Plesetsk Cosmodrome

Loading…

Nächste Überflüge (nächste 24 Stunden)

TLE

AlterndSource: Space-Track

Epoche: Sep 9, 2026, 07:27 UTC

1 26025U 91068AL  26252.31110990  .00000054  00000-0  29586-3 0  9992
2 26025  82.7312  20.6687 0261628 129.6654 258.3184 12.36144003588249

Verfolge SL-14 DEB in Echtzeit mit AllMySat

Download on the App Store